Вернуться в каталог

STARLINK-33647

АктивенСвязьVLEO
NORAD 63411·PAYLOAD·🇺🇸 United States

Запущен Mar 31, 2025 с Cape Canaveral Space Force Station

Loading…

Ближайшие Пролёты (ближайшие 24 часа)

TLE

СвежийSource: CelesTrak SupGP

Эпоха: Sep 14, 2026, 20:46 UTC

1 63411C 25065N   26257.86576389 -.00037431  00000+0 -13561-2 0  2571
2 63411  42.9992 126.2013 0001365 269.0807 152.9517 15.27589357    17

Отслеживайте STARLINK-33647 в реальном времени с AllMySat

Download on the App Store